Location: Paris
(48.6709°N, 2.3750°E)
Time: 06:33:00
(UTC+02:00)

CUBESAT XI-V - Pass Details

Date: 29 June 2022
Orbit: 668 x 690 km, 98.1° (Epoch: 18 August)

Event Time Altitude Azimuth Distance (km) Brightness Sun altitude
Exits shadow 03:45:27 19° 182° (S) 1,591 ? -13.9°
Maximum altitude 03:48:41 61° 259° (W) 769 ? -13.7°
Drops below altitude 10° 03:53:15 10° 340° (NNW) 2,112 ? -13.3°
Sets 03:55:31 0° 344° (NNW) 3,029 ? -13.1°
